Holzheim bei Oder, Germany

6:56 PM CET on February 24, 2017 (GMT +0100)
Hohenfels Army Air Field

Weather History for ETIH - March, 2013

Change the Weather History Date:

Wednesday, March 6, 2013

  Actual Average Record
Temperature  
Mean Temperature 40 °F -  
Max Temperature 56 °F - - ()
Min Temperature 24 °F - - ()
Degree Days  
Heating Degree Days 25    
Moisture  
Dew Point 28 °F    
Average Humidity 72    
Maximum Humidity 93    
Minimum Humidity 36    
Precipitation  
Precipitation 0.00 in - - ()
Sea Level Pressure  
Sea Level Pressure 29.73 in    
Wind  
Wind Speed 2 mph ()    
Max Wind Speed 8 mph    
Max Gust Speed -    
Visibility 6.2 miles    
Events      
T = Trace of Precipitation, MM = Missing Value Source: Averaged Metar Reports

Daily Weather History Graph

Daily Weather History Graph

Search for Another Location

Airport or City:

Trip Planner

Search our weather history database for the weather conditions in past years. The results will help you decide how hot, cold, wet, or windy it might be!

Date:

Astronomy

Mar. 06, 2013 Rise Set
Actual Time 6:44 AM CET 6:03 PM CET
Civil Twilight 6:13 AM CET 6:35 PM CET
Nautical Twilight 5:36 AM CET 7:12 PM CET
Astronomical Twilight 4:59 AM CET 7:49 PM CET
Moon 3:01 AM CET (3/6) 12:04 PM CET (3/6)
Length of Visible Light 12h 22m
Length of Day
11h 18m
Waning Crescent, 33% of the Moon is Illuminated
Mar 6
Waning Crescent
Mar 11
New
Mar 19
First Quarter
Mar 27
Full
Apr 3
Last Quarter

Hourly Weather History & Observations

Time (CET) Temp. Windchill Dew Point Humidity Pressure Visibility Wind Dir Wind Speed Gust Speed Precip Events Conditions
12:58 AM 28.4 °F - 25.3 °F 88% 29.85 in 6.2 mi Calm Calm - N/A   Clear
1:58 AM 27.7 °F - 25.2 °F 90% 29.84 in 6.2 mi Calm Calm - N/A   Clear
2:58 AM 26.4 °F - 24.3 °F 92% 29.83 in 6.2 mi Calm Calm - N/A   Clear
3:58 AM 26.1 °F - 24.1 °F 92% 29.81 in 6.2 mi NW 2.3 mph - N/A   Clear
4:58 AM 25.5 °F - 23.5 °F 92% 29.81 in 6.2 mi Calm Calm - N/A   Clear
5:58 AM 24.8 °F - 23.0 °F 93% 29.82 in 6.2 mi Calm Calm - N/A   Clear
6:58 AM 24.3 °F - 22.3 °F 92% 29.83 in 6.2 mi Calm Calm - N/A   Clear
7:58 AM 26.4 °F - 24.3 °F 92% 29.82 in 6.2 mi Calm Calm - N/A   Clear
8:58 AM 30.9 °F - 28.0 °F 89% 29.81 in 6.2 mi Calm Calm - N/A   Clear
9:58 AM 38.1 °F - 29.8 °F 72% 29.78 in 6.2 mi ESE 2.3 mph - N/A   Clear
10:58 AM 45.5 °F - 29.3 °F 53% 29.74 in 6.2 mi Variable 2.3 mph - N/A   Clear
11:58 AM 48.7 °F - 26.8 °F 43% 29.72 in 6.2 mi ESE 6.9 mph - N/A   Clear
12:58 PM 51.1 °F - 27.0 °F 39% 29.70 in 6.2 mi SE 5.8 mph - N/A   Scattered Clouds
1:58 PM 53.8 °F - 29.1 °F 39% 29.68 in 6.2 mi SE 5.8 mph - N/A   Clear
2:58 PM 56.3 °F - 31.5 °F 39% 29.65 in 6.2 mi East 4.6 mph - N/A   Clear
3:58 PM 56.1 °F - 29.8 °F 37% 29.63 in 6.2 mi NE 8.1 mph - N/A   Clear
4:58 PM 56.5 °F - 29.8 °F 36% 29.63 in 6.2 mi East 5.8 mph - N/A   Clear
5:58 PM 45.1 °F - 32.4 °F 61% 29.65 in 6.2 mi West 2.3 mph - N/A   Clear
6:58 PM 40.3 °F - 31.8 °F 72% 29.68 in 6.2 mi WNW 2.3 mph - N/A   Scattered Clouds
7:58 PM 37.8 °F 34.2 °F 31.3 °F 77% 29.68 in 6.2 mi WNW 4.6 mph - N/A   Mostly Cloudy
8:58 PM 36.0 °F - 30.2 °F 80% 29.66 in 6.2 mi North 2.3 mph - N/A   Clear
9:58 PM 34.7 °F - 30.4 °F 84% 29.65 in 6.2 mi Calm Calm - N/A   Clear
10:58 PM 32.7 °F - 29.1 °F 87% 29.64 in 6.2 mi NW 1.2 mph - N/A   Clear
11:58 PM 31.8 °F - 28.9 °F 89% 29.61 in 6.2 mi Calm Calm - N/A   Mostly Cloudy